Home > Weather > Perth > Past weeks

Flag for United Kingdom Weather for the Past 2 Weeks in Perth, Scotland, United Kingdom

Now
36 °F

Sunny.


Feels Like: 30 °F
Forecast: 36 / 53 °F
Wind: 7 mph from West

Location: Leuchars

Current Time: Apr 30, 2016 at 8:48:13 AM

Latest Report: Apr 30, 2016 at 6:50 AM


Visibility: 10 mi

Pressure: 29.98 "Hg

Humidity: 87%

Dew Point: 32 °F

Location of PerthLocation

Historic Weather in Perth — Graph

°F

Perth Temperature Yesterday

Maximum temperature yesterday: 45 °F (at 4:50 PM)
Minimum temperature yesterday: 34 °F (at 3:50 AM)
Average temperature yesterday: 39 °F

High & Low Weather Summary for the Past Weeks

 TemperatureHumidityPressure
High57 °F (Apr 20, 3:50 PM)100% (Apr 20, 11:50 PM)30.45 "Hg (Apr 20, 11:50 PM)
Low30 °F (Apr 17, 1:50 AM)40% (Apr 27, 1:50 PM)29.53 "Hg (Apr 29, 1:50 AM)
Average42 °F71%29.99 "Hg
* Reported Apr 15 6:50 AM — Apr 30 6:50 AM, Perth, Weather by CustomWeather, © 2016

Note: Actual official high and low records may vary slightly from our data, if they occured in-between our weather recording intervals... More about our weather records

Advertising

Perth Weather History for the Previous 24 Hours

Scroll right to see more
 ConditionsComfort  
Time TempWeatherWind HumidityBarometerVisibility
6:50 AM
Sat, Apr 30
36 °FSunny.7 mph87%29.98 "Hg10 mi
5:50 AM36 °FClear.7 mph81%29.98 "Hg10 mi
4:50 AM36 °FClear.10 mph81%29.95 "Hg10 mi
3:50 AM34 °FClear.8 mph81%29.95 "Hg10 mi
2:50 AM36 °FClear.9 mph93%29.92 "Hg10 mi
1:50 AM37 °FClear.7 mph81%29.92 "Hg10 mi
12:50 AM36 °FClear.7 mph93%29.92 "Hg10 mi
11:50 PM
Fri, Apr 29
39 °FClear.7 mph81%29.89 "Hg10 mi
10:50 PM41 °FClear.8 mph76%29.89 "Hg10 mi
9:50 PM41 °FClear.6 mph76%29.86 "Hg10 mi
8:50 PM41 °FSunny.10 mph76%29.86 "Hg10 mi
7:50 PM45 °FBroken clouds.10 mph66%29.83 "HgN/A
6:50 PM45 °FBroken clouds.6 mph66%29.80 "HgN/A
5:50 PM45 °FPartly sunny.8 mph71%29.77 "HgN/A
4:50 PM45 °FBroken clouds.14 mph71%29.77 "HgN/A
3:50 PM43 °FSprinkles. Partly sunny.9 mph81%29.74 "HgN/A
2:50 PM41 °FPartly sunny.9 mph87%29.74 "HgN/A
1:50 PM41 °FSprinkles. Partly sunny.18 mph87%29.71 "HgN/A
12:50 PM41 °FPartly sunny.17 mph93%29.68 "HgN/A
11:50 AM39 °FSprinkles. Partly sunny.16 mph93%29.65 "HgN/A
10:50 AM37 °FSprinkles. Partly sunny.18 mph100%29.62 "HgN/A
8:50 AM37 °FLight rain. Partly sunny.15 mph93%29.59 "HgN/A
Weather by CustomWeather, © 2016

See weather overviewHow to use our weather pages